SL-8 DEB, 3038

Orbit data source: Space-Track

SL-8 DEB, 3038 is space debris in LEO originally from a launch on Mon, 15 Mar 1965 UTC launched from the Tyuratam Missile And Space Complex (TTMTR). Debris objects in space refer to the collection of defunct objects orbiting the Earth. Examples of debris include non-operational satellites, rocket bodies, and fragments generated from explosions, collisions, or faulty payload assembly.

Loading next visibility...
Identifier
3038, 1965-020EN
Orbit
LEO
Country
Flag of CISCIS
Related business
Manufacturer
Unknown
Mission
Spacecraft
Bus & Motor
Unknown
Mass
Unknown
Launch date (UTC)
1965-03-15 (61 years ago)
Launch vehicle
Unknown
Launch site
Tyuratam Missile And Space Complex (TTMTR)
Object type
Payload
Rocket body
Debris
Shape & HBR
Unknown shape, 0.1 m
Radar Cross Section
Medium (>0.1 m² and <1 m²)

Expand to show TLE details & history
Last TLE update: 9 hours ago

TLE from 9 hours ago
0 SL-8 DEB
1  3038U 65020EN  26177.72172939  .00011499  00000-0  24249-2 0  9997
2  3038  56.1664 298.5062 0382085 166.0347 195.1574 14.22870960227179
Epoch: 2026-06-26T17:19Z
TLE epoch observation values (Epoch: 2026-06-26T17:19:17.419Z)
Latitude
-0.00002°
Longitude
123.83744°
Altitude
1,082.811 km
Speed
7.175 km/s
True Right ascension
19h 54m 01s
True Declination
0° 00' 00"
Sunlit
Object was in full shadow at epoch
Visualization orbit readout
Latitude
Unknown
Longitude
Unknown
Altitude
Unknown
Speed
Unknown
Apparent Right ascension
Unknown
Apparent Declination
Unknown
Sunlit
N/A
Visualization observer readout
Local Sidereal Time
14:05:39
Azimuth
Unknown
Elevation
Unknown
Doppler factor
Unknown
Orbital elements
Apogee altitude
1,090.306 km
Perigee altitude
540.593 km
Semi-major axis
7,193.586 km
Eccentricity
0.03821
Inclination
56.1664°
RAAN
298.5062°
Arg. of periapsis
166.0347°
True anomaly
194.06318°
Mean anomaly
195.1574°
Eccentric anomaly
194.60537°
Mean motion
3.55734 °/min
Orbital period
101.2 mins
BSTAR
0.0024249
Loading maneuver chart data...
Computing Atmospheric mass density...

Documentation

Showing up to 5 results
|